[[{"header":{"parameterUnit":"m.s-1","parameterCategory":1,"la1":30.2991,"la2":30.254,"lo1":-89.0895,"lo2":-89.0444,"dy":0.0017,"dx":0.0017,"nx":28,"ny":28,"refTime":"2025-03-06T09:00:00:Z","depth":0,"parameterNumber":2,"parameterNumberName":"U-component_of_WINDS"},"data":[0,0,0,0,0,0,0,0,0,0,0,0,0,0,0,0,0,0,0,0,0,0,0,0,0,0,0,0,0,0,0,0,0,0,0,0,0,0,0,0,0,0,0,0,0,0,0,0,0,0,0,0,0,0,0,0,0,0,-0.8187,-0.8187,0,-0.8144,-0.8143,-0.8143,-0.8114,-0.8114,-0.8114,-0.8114,-0.8073,-0.8072,-0.8071,0,0,0,0,0,0,0,0,0,0,0,0,0,-0.8249,-0.8248,-0.8187,-0.8187,-0.8186,-0.8144,-0.8143,-0.8143,-0.8114,-0.8114,-0.8114,-0.8114,-0.8073,-0.8072,-0.8071,0,0,0,0,0,0,0,0,0,0,0,0,0,-0.8216,-0.8247,-0.8187,-0.8167,-0.8164,-0.8144,-0.8143,-0.8143,-0.8114,-0.8114,-0.8114,-0.8113,-0.8073,-0.8072,-0.8071,-0.8068,0,0,-0.8067,-0.8066,0,0,0,0,0,0,0,0,-0.8217,-0.8213,-0.817,-0.8168,-0.8166,-0.8134,-0.815,-0.8118,-0.8114,-0.8134,-0.8114,-0.8113,-0.8094,-0.8091,-0.8083,-0.8067,-0.8065,-0.8066,-0.8066,-0.8065,-0.8065,0,0,0,0,0,0,0,-0.822,-0.8215,-0.817,-0.817,-0.8167,-0.8161,-0.8156,-0.8144,-0.8116,-0.8132,-0.813,-0.8125,-0.8092,-0.8085,-0.8082,-0.8064,-0.8067,-0.8065,-0.8064,-0.8064,-0.8043,-0.8043,0,0,0,0,0,0,-0.8225,-0.8217,-0.8172,-0.8169,-0.8191,-0.816,-0.8154,-0.8145,-0.8116,-0.8111,-0.8125,-0.8124,-0.8087,-0.8084,-0.8081,-0.8075,-0.8065,-0.8064,-0.8063,-0.8043,-0.8043,-0.8043,0,0,0,0,0,0,-0.8226,-0.8221,-0.8173,-0.8192,-0.8186,-0.8159,-0.8149,-0.8144,-0.8136,-0.8111,-0.8106,-0.8122,-0.8087,-0.8082,-0.8071,-0.8073,-0.8063,-0.8062,-0.8042,-0.8043,-0.8043,-0.8065,0,0,0,0,0,0,-0.8228,-0.8222,-0.822,-0.8192,-0.8185,-0.8164,-0.8149,-0.8143,-0.8133,-0.8131,-0.8107,-0.8102,-0.8086,-0.8073,-0.807,-0.8071,-0.8061,-0.8042,-0.8043,-0.8043,-0.8064,-0.8066,-0.8068,0,0,0,0,0,-0.823,-0.8229,-0.822,-0.8215,-0.8182,-0.8164,-0.816,-0.814,-0.8134,-0.8132,-0.8116,-0.8103,-0.8074,-0.8073,-0.8068,-0.807,-0.8042,-0.8042,-0.8043,-0.8063,-0.8066,-0.8068,0,0,0,0,0,0,-0.8259,-0.8225,-0.8215,-0.8204,-0.8187,-0.8159,-0.8157,-0.8144,-0.8129,-0.8128,-0.8105,-0.81,-0.8091,-0.8079,-0.8078,-0.8066,-0.8056,-0.8056,-0.8073,-0.8076,-0.8078,-0.8081,-0.806,0,0,0,0,0,-0.8263,-0.8251,-0.8222,-0.8216,-0.8208,-0.8184,-0.8175,-0.8161,-0.8143,-0.8137,-0.8119,-0.8103,-0.809,-0.8083,-0.8069,-0.8063,-0.8057,-0.8061,-0.8063,-0.8065,-0.8065,-0.806,-0.8062,-0.8045,-0.8045,-0.8045,0,0,-0.8274,-0.8254,-0.8247,-0.8221,-0.8206,-0.8194,-0.8178,-0.8166,-0.8158,-0.8135,-0.8123,-0.811,-0.8091,-0.8081,-0.8077,-0.8071,-0.8068,-0.8066,-0.8067,-0.8066,-0.8061,-0.8062,-0.8064,-0.8045,-0.8045,-0.8045,0,0,-0.8286,-0.8269,-0.8261,-0.8247,-0.8224,-0.8208,-0.8206,-0.818,-0.817,-0.8157,-0.814,-0.813,-0.8108,-0.8095,-0.8085,-0.8092,-0.808,-0.8089,-0.8099,-0.8094,-0.8096,-0.8097,-0.8098,-0.8099,-0.8089,-0.8089,-0.8089,0,-0.8302,-0.8282,-0.826,-0.8248,-0.8237,-0.8215,-0.8207,-0.8195,-0.817,-0.8163,-0.8157,-0.8129,-0.8114,-0.8101,-0.8103,-0.8096,-0.8094,-0.8091,-0.8097,-0.8098,-0.8098,-0.81,-0.8101,-0.809,-0.809,-0.809,-0.809,0,-0.8302,-0.8289,-0.8285,-0.826,-0.8248,-0.8239,-0.8216,-0.8208,-0.8195,-0.818,-0.8167,-0.8149,-0.8131,-0.8127,-0.8116,-0.8113,-0.811,-0.8101,-0.8091,-0.8101,-0.8102,-0.8103,-0.8091,-0.8091,-0.8091,-0.809,0,0,-0.8331,-0.8292,-0.8292,-0.8279,-0.8252,-0.8242,-0.8232,-0.8213,-0.8206,-0.819,-0.8181,-0.8163,-0.8154,-0.8143,-0.813,-0.8126,-0.8131,-0.8117,-0.8116,-0.812,-0.8127,-0.8133,-0.8134,-0.8123,-0.8123,-0.8123,-0.8128,0,-0.8339,-0.8318,-0.8297,-0.8284,-0.8272,-0.825,-0.8242,-0.8225,-0.821,-0.8198,-0.8183,-0.817,-0.816,-0.8153,-0.8148,-0.8132,-0.8132,-0.8131,-0.8115,-0.8115,-0.812,-0.8135,-0.8142,-0.8147,-0.8128,-0.8128,-0.8129,0,-0.8345,-0.8328,-0.8313,-0.8286,-0.828,-0.8273,-0.8253,-0.8242,-0.8223,-0.8213,-0.82,-0.8185,-0.8174,-0.8166,-0.8151,-0.815,-0.8143,-0.8134,-0.8133,-0.8131,-0.8122,-0.8132,-0.8149,-0.8149,-0.8129,-0.8129,-0.8129,0,-0.8367,-0.834,-0.8328,-0.8318,-0.8287,-0.8282,-0.8269,-0.8249,-0.8239,-0.8223,-0.8216,-0.8199,-0.819,-0.8178,-0.8159,-0.8155,-0.8146,-0.8136,-0.8137,-0.8138,-0.8136,-0.8136,-0.8151,-0.8132,-0.8132,-0.8132,-0.8132,0,-0.8378,-0.837,-0.8337,-0.8329,-0.8319,-0.8296,-0.8287,-0.8273,-0.8255,-0.8245,-0.8226,-0.8217,-0.8193,-0.8181,-0.8166,-0.8156,-0.8152,-0.8144,-0.814,-0.8145,-0.8146,-0.814,-0.8139,-0.8132,-0.8132,-0.8132,-0.8132,0,-0.8401,-0.8379,-0.8363,-0.8334,-0.8327,-0.8321,-0.8297,-0.8289,-0.8273,-0.826,-0.8256,-0.8231,-0.8216,-0.8196,-0.8176,-0.8166,-0.8157,-0.8151,-0.8163,-0.8161,-0.8163,-0.8163,-0.8173,-0.8173,-0.8155,-0.8155,-0.8156,0,-0.8409,-0.8402,-0.8372,-0.8362,-0.8349,-0.8335,-0.8324,-0.8302,-0.8291,-0.8268,-0.8263,-0.8246,-0.8231,-0.8209,-0.819,-0.8174,-0.8167,-0.8172,-0.8165,-0.817,-0.8167,-0.8167,-0.8166,-0.8174,-0.8174,-0.8175,-0.8175,0,-0.8426,-0.8415,-0.8399,-0.8379,-0.8366,-0.835,-0.8333,-0.8327,-0.83,-0.829,-0.8273,-0.8262,-0.824,-0.8224,-0.8205,-0.8193,-0.8179,-0.8177,-0.8176,-0.8181,-0.8188,-0.8184,-0.8168,-0.8177,-0.8177,-0.8177,-0.8176,-0.8176,-0.8441,-0.8433,-0.841,-0.8393,-0.8378,-0.8362,-0.8353,-0.8335,-0.832,-0.83,-0.8287,-0.8272,-0.8252,-0.8225,-0.8213,-0.8201,-0.8196,-0.8195,-0.8195,-0.8195,-0.8196,-0.819,-0.8198,-0.8198,-0.8198,-0.8197,-0.8197,0,-0.8457,-0.844,-0.8425,-0.84,-0.8387,-0.8374,-0.8354,-0.8344,-0.833,-0.8312,-0.8298,-0.8279,-0.8263,-0.8242,-0.8225,-0.8219,-0.8212,-0.8215,-0.8215,-0.8212,-0.8202,-0.8204,-0.8221,-0.8221,-0.8221,-0.8221,-0.8221,-0.8221,-0.8463,-0.8449,-0.8435,-0.8413,-0.8397,-0.838,-0.837,-0.8355,-0.8341,-0.832,-0.8306,-0.8292,-0.8273,-0.8254,-0.8239,-0.8233,-0.8227,-0.8232,-0.8225,-0.8215,-0.8213,-0.8211,-0.8213,-0.8231,-0.8231,-0.8236,-0.8236,-0.8236]},{"header":{"parameterUnit":"m.s-1","parameterCategory":1,"la1":30.2991,"la2":30.254,"lo1":-89.0895,"lo2":-89.0444,"dy":0.0017,"dx":0.0017,"nx":28,"ny":28,"refTime":"2025-03-06T09:00:00:Z","depth":0,"parameterNumber":3,"parameterNumberName":"V-component_of_WINDS"},"data":[0,0,0,0,0,0,0,0,0,0,0,0,0,0,0,0,0,0,0,0,0,0,0,0,0,0,0,0,0,0,0,0,0,0,0,0,0,0,0,0,0,0,0,0,0,0,0,0,0,0,0,0,0,0,0,0,0,0,4.3648,4.3649,0,4.3751,4.3752,4.3753,4.3795,4.3794,4.3794,4.3794,4.3895,4.3898,4.3901,0,0,0,0,0,0,0,0,0,0,0,0,0,4.3486,4.3488,4.3648,4.3649,4.3651,4.3751,4.3752,4.3753,4.3795,4.3794,4.3794,4.3794,4.3894,4.3898,4.3901,0,0,0,0,0,0,0,0,0,0,0,0,0,4.3569,4.3489,4.3648,4.3683,4.3688,4.375,4.3752,4.3754,4.3795,4.3794,4.3794,4.3794,4.3893,4.3897,4.3902,4.3936,0,0,4.3915,4.3917,0,0,0,0,0,0,0,0,4.3564,4.3575,4.3677,4.3681,4.3686,4.376,4.3732,4.3815,4.3795,4.3754,4.3794,4.3793,4.385,4.3858,4.3878,4.394,4.3945,4.3915,4.3918,4.392,4.3921,0,0,0,0,0,0,0,4.3558,4.357,4.3689,4.3678,4.3684,4.3693,4.3705,4.3748,4.3802,4.3757,4.3761,4.3772,4.3852,4.3874,4.3881,4.3946,4.3915,4.3919,4.3922,4.3924,4.4044,4.4044,0,0,0,0,0,0,4.3547,4.3565,4.3685,4.3692,4.3623,4.3697,4.3709,4.3736,4.3802,4.3812,4.3773,4.3774,4.3866,4.3875,4.3884,4.393,4.392,4.3924,4.3927,4.4043,4.4044,4.4045,0,0,0,0,0,0,4.3543,4.3557,4.3681,4.363,4.3646,4.37,4.3729,4.3738,4.376,4.3814,4.3823,4.3784,4.3866,4.3878,4.3923,4.3934,4.3926,4.393,4.4043,4.4044,4.4044,4.4021,0,0,0,0,0,0,4.3538,4.3556,4.357,4.363,4.3649,4.3719,4.373,4.3741,4.3767,4.377,4.3827,4.3836,4.3867,4.3917,4.3928,4.394,4.3933,4.4042,4.4043,4.4044,4.4021,4.4021,4.4021,0,0,0,0,0,4.3533,4.3558,4.357,4.3584,4.3667,4.372,4.373,4.3766,4.3768,4.3782,4.3818,4.3835,4.3931,4.3921,4.3934,4.3948,4.4041,4.4043,4.4044,4.4021,4.4021,4.4021,0,0,0,0,0,0,4.3495,4.3566,4.3581,4.3626,4.3667,4.3726,4.3745,4.3765,4.3804,4.3805,4.3847,4.3859,4.3902,4.3929,4.3916,4.3985,4.3988,4.3991,4.3966,4.3966,4.3966,4.3959,4.3937,0,0,0,0,0,4.3493,4.353,4.359,4.3624,4.3644,4.3691,4.3715,4.3739,4.3783,4.38,4.3838,4.3879,4.3919,4.3944,4.3983,4.4025,4.4039,4.4041,4.4041,4.4041,4.4044,4.4071,4.4073,4.4049,4.4049,4.4049,0,0,4.3487,4.353,4.3551,4.3618,4.3652,4.369,4.3705,4.3744,4.3772,4.3805,4.3851,4.3881,4.3929,4.3973,4.3995,4.3997,4.4054,4.4042,4.4042,4.4045,4.4072,4.4074,4.4076,4.405,4.405,4.4049,0,0,4.3497,4.3533,4.3567,4.3601,4.3654,4.3686,4.3694,4.3752,4.3773,4.382,4.3846,4.388,4.3947,4.3981,4.4007,4.4032,4.405,4.4043,4.4043,4.4069,4.4071,4.4073,4.4083,4.4087,4.4046,4.4046,4.4046,0,4.3483,4.3542,4.3581,4.362,4.3648,4.3682,4.3717,4.3748,4.381,4.3829,4.3831,4.3918,4.3952,4.4007,4.4013,4.4032,4.4043,4.4037,4.4067,4.407,4.4072,4.4083,4.4087,4.4045,4.4045,4.4045,4.4045,0,4.3523,4.3564,4.3585,4.3647,4.3677,4.3713,4.3758,4.3784,4.3806,4.3838,4.3886,4.3929,4.3979,4.3993,4.4013,4.405,4.4051,4.4059,4.4063,4.4073,4.4084,4.4088,4.4044,4.4044,4.4044,4.4044,0,0,4.3512,4.3597,4.3604,4.3633,4.3695,4.3727,4.3764,4.3815,4.3838,4.3879,4.3913,4.397,4.398,4.4009,4.4034,4.4056,4.4076,4.4063,4.4064,4.4065,4.4121,4.4116,4.412,4.4087,4.4088,4.4089,4.4118,0,4.3531,4.3602,4.3639,4.3695,4.3733,4.3767,4.38,4.3841,4.3872,4.3908,4.3941,4.3982,4.3991,4.4009,4.4032,4.4068,4.4088,4.4066,4.412,4.4121,4.4108,4.4125,4.4119,4.4144,4.4122,4.4123,4.4124,0,4.3562,4.3607,4.3667,4.3727,4.3744,4.3773,4.3824,4.3859,4.3906,4.3927,4.3961,4.3986,4.4028,4.4028,4.4086,4.4071,4.4095,4.4115,4.4117,4.4125,4.4124,4.4135,4.4153,4.4158,4.413,4.413,4.4129,0,4.3551,4.3625,4.3671,4.3695,4.3765,4.3785,4.3815,4.3863,4.3892,4.3935,4.3955,4.4001,4.4027,4.4063,4.41,4.4096,4.4156,4.4158,4.4175,4.4174,4.4187,4.4186,4.4211,4.4199,4.4199,4.4199,4.4199,0,4.3569,4.3605,4.3667,4.3696,4.3737,4.3779,4.3819,4.3851,4.3893,4.3929,4.3959,4.3991,4.4038,4.4076,4.4105,4.415,4.4161,4.4179,4.4187,4.4178,4.4176,4.4195,4.4195,4.42,4.42,4.42,4.4199,0,4.3563,4.3606,4.3659,4.3722,4.3739,4.3767,4.382,4.3849,4.3882,4.3926,4.3939,4.399,4.4037,4.4078,4.4138,4.4158,4.4205,4.4213,4.419,4.4194,4.421,4.4209,4.425,4.4258,4.4238,4.4238,4.4238,0,4.3572,4.3601,4.3668,4.3695,4.3726,4.3768,4.3798,4.3841,4.3871,4.3929,4.3951,4.4001,4.4043,4.4116,4.4158,4.4205,4.4216,4.4227,4.4223,4.4214,4.4219,4.4217,4.4222,4.4227,4.4227,4.4227,4.4227,0,4.3585,4.3606,4.365,4.3702,4.3738,4.378,4.3823,4.3843,4.3893,4.3926,4.3975,4.4008,4.4072,4.4121,4.4174,4.4204,4.4225,4.4228,4.4235,4.4227,4.4213,4.4223,4.4192,4.4227,4.4227,4.4227,4.4227,4.4227,4.3589,4.3617,4.367,4.3718,4.3755,4.3796,4.3827,4.3865,4.3907,4.3964,4.3986,4.4037,4.4086,4.4159,4.4189,4.423,4.4233,4.4242,4.4245,4.4247,4.4247,4.4205,4.4239,4.4239,4.4239,4.4239,4.4239,0,4.3605,4.3642,4.3685,4.3746,4.3785,4.3802,4.3851,4.3882,4.3927,4.3971,4.4013,4.4071,4.4119,4.4166,4.4217,4.424,4.4251,4.4253,4.4252,4.4259,4.424,4.423,4.4243,4.4243,4.4243,4.4243,4.4243,4.4243,4.3618,4.3668,4.3695,4.3764,4.38,4.3852,4.3879,4.3916,4.3953,4.4017,4.4058,4.4089,4.4135,4.419,4.4235,4.4248,4.4266,4.4265,4.428,4.4261,4.426,4.4259,4.425,4.4268,4.4268,4.4297,4.4297,4.4297]}]]